Date String (YYYY-MM-DD hh:mm:ss) UTC,Instrument flags,Ambient pressure (hPa),Sample flow (lpm),Bypass flow (lpm),Sample temperature (°C),Ambient temperature (°C),ASC tube jacket temperature (°C),LED temperature (°C),Box temperature (°C),Sample RH (%),Span deviation,Mass concentration (μg/m³),Mass concentration (μg/m³),Mass concentration (μg/m³)
DateTimeUTC,F1_M11,P_M11,Q1_M11,Q2_M11,T1_M11,T2_M11,T3_M11,T4_M11,T5_M11,U1_M11,ZSPAN_M11,X0_M11,X2_M11,X1_M11
2023-05-05 09:00:00,,0825.7,5.00,0.00,29.6,28.1,00.0,38.0,31.1,20.5,0000.0,0009.85,0004.00,0002.38
2023-05-05 09:01:00,,0825.6,5.00,0.00,29.6,28.1,00.0,38.0,31.1,20.5,0000.0,0010.08,0004.00,0002.39
2023-05-05 09:02:00,,0825.6,5.00,0.00,29.6,28.1,00.0,38.0,31.1,20.6,0000.0,0009.78,0003.97,0002.39
2023-05-05 09:03:00,,0825.6,5.00,0.00,29.6,28.1,00.0,38.0,31.1,20.7,0000.0,0009.85,0004.01,0002.41
2023-05-05 09:04:00,,0825.6,5.00,0.00,29.6,28.1,00.0,38.0,31.1,20.8,0000.0,0009.56,0004.05,0002.42
2023-05-05 09:05:00,,0825.6,4.99,0.00,29.7,28.2,00.0,38.0,31.1,20.8,0000.0,0009.49,0004.04,0002.42
2023-05-05 09:06:00,,0825.6,5.00,0.00,29.7,28.2,00.0,38.0,31.1,20.6,0000.0,0009.37,0004.01,0002.44
2023-05-05 09:07:00,,0825.6,5.00,0.00,29.7,28.2,00.0,38.0,31.1,20.5,0000.0,0008.95,0003.96,0002.45
2023-05-05 09:08:00,,0825.6,5.00,0.00,29.7,28.2,00.0,38.0,31.1,20.5,0000.0,0009.12,0004.01,0002.47
2023-05-05 09:09:00,,0825.6,5.00,0.00,29.7,28.2,00.0,38.0,31.2,20.5,0000.0,0009.10,0004.02,0002.47
2023-05-05 09:10:00,,0825.6,4.99,0.00,29.7,28.2,00.0,38.1,31.2,20.5,0000.0,0009.05,0004.03,0002.46
2023-05-05 09:11:00,,0825.6,4.99,0.00,29.7,28.2,00.0,38.1,31.2,20.6,0000.0,0009.04,0004.01,0002.45
2023-05-05 09:12:00,,0825.6,4.99,0.00,29.7,28.2,00.0,38.1,31.2,20.8,0000.0,0008.93,0004.02,0002.43
2023-05-05 09:13:00,,0825.6,5.01,0.00,29.7,28.1,00.0,38.1,31.2,20.8,0000.0,0008.83,0004.01,0002.44
2023-05-05 09:14:00,,0825.7,5.00,0.00,29.6,28.1,00.0,38.0,31.2,20.9,0000.0,0008.59,0003.94,0002.43
2023-05-05 09:15:00,,0825.7,5.00,0.00,29.6,28.0,00.0,38.0,31.2,20.9,0000.0,0008.57,0003.95,0002.43
2023-05-05 09:16:00,,0825.7,5.00,0.00,29.6,28.0,00.0,38.0,31.1,20.9,0000.0,0008.74,0003.99,0002.44
2023-05-05 09:17:00,,0825.6,5.00,0.00,29.6,27.9,00.0,38.0,31.1,20.9,0000.0,0008.91,0004.00,0002.41
2023-05-05 09:18:00,,0825.6,5.00,0.00,29.6,27.9,00.0,38.0,31.1,20.8,0000.0,0009.00,0004.04,0002.41
2023-05-05 09:19:00,,0825.6,5.01,0.00,29.6,27.9,00.0,38.0,31.1,20.8,0000.0,0008.92,0004.02,0002.40
2023-05-05 09:20:00,,0825.6,5.00,0.00,29.6,27.9,00.0,38.0,31.1,20.8,0000.0,0008.82,0003.97,0002.38
2023-05-05 09:21:00,,0825.6,5.00,0.00,29.6,27.9,00.0,38.0,31.1,20.8,0000.0,0009.25,0003.95,0002.36
2023-05-05 09:22:00,,0825.6,4.99,0.00,29.6,27.9,00.0,38.0,31.1,20.8,0000.0,0009.84,0004.00,0002.35
2023-05-05 09:23:00,,0825.6,5.01,0.00,29.6,27.9,00.0,38.0,31.1,20.6,0000.0,0010.59,0003.99,0002.35
2023-05-05 09:24:00,,0825.6,5.01,0.00,29.6,28.0,00.0,38.0,31.1,20.5,0000.0,0011.17,0004.01,0002.34
2023-05-05 09:25:00,,0825.6,5.00,0.00,29.6,28.0,00.0,38.0,31.1,20.6,0000.0,0011.28,0004.04,0002.34
2023-05-05 09:26:00,,0825.6,4.98,0.00,29.6,28.0,00.0,38.0,31.1,20.6,0000.0,0011.68,0004.04,0002.34
2023-05-05 09:27:00,,0825.6,5.01,0.00,29.6,28.0,00.0,38.0,31.1,20.4,0000.0,0011.65,0003.98,0002.33
2023-05-05 09:28:00,,0825.6,5.01,0.00,29.6,28.0,00.0,38.0,31.1,20.3,0000.0,0011.47,0003.94,0002.33
2023-05-05 09:29:00,,0825.6,4.98,0.00,29.5,27.9,00.0,38.0,31.0,20.2,0000.0,0011.44,0003.94,0002.34
2023-05-05 09:30:00,,0825.6,5.00,0.00,29.5,27.8,00.0,38.0,31.0,20.1,0000.0,0011.38,0003.93,0002.32
2023-05-05 09:31:00,,0825.6,5.00,0.00,29.5,27.8,00.0,38.0,30.9,19.9,0000.0,0011.36,0003.92,0002.31
2023-05-05 09:32:00,,0825.6,5.00,0.00,29.5,27.8,00.0,37.9,31.0,19.6,0000.0,0011.18,0003.94,0002.32
2023-05-05 09:33:00,,0825.6,4.99,0.00,29.4,27.7,00.0,37.9,31.0,19.6,0000.0,0010.55,0003.92,0002.32
2023-05-05 09:34:00,,0825.6,4.99,0.00,29.4,27.7,00.0,37.9,30.9,19.5,0000.0,0010.01,0003.86,0002.30
2023-05-05 09:35:00,,0825.6,5.01,0.00,29.4,27.7,00.0,37.9,30.9,19.4,0000.0,0009.17,0003.84,0002.29
2023-05-05 09:36:00,,0825.6,5.01,0.00,29.4,27.7,00.0,37.9,31.0,19.4,0000.0,0009.79,0003.81,0002.27
2023-05-05 09:37:00,,0825.6,5.00,0.00,29.4,27.7,00.0,37.9,31.0,19.4,0000.0,0009.77,0003.82,0002.26
2023-05-05 09:38:00,,0825.7,5.00,0.00,29.4,27.7,00.0,37.9,31.0,19.4,0000.0,0009.51,0003.80,0002.25
2023-05-05 09:39:00,,0825.6,4.99,0.00,29.4,27.7,00.0,37.9,31.0,19.4,0000.0,0009.56,0003.78,0002.25
2023-05-05 09:40:00,,0825.6,5.02,0.00,29.4,27.8,00.0,37.9,30.9,19.3,0000.0,0009.61,0003.78,0002.25
2023-05-05 09:41:00,,0825.6,5.00,0.00,29.4,27.8,00.0,37.9,30.9,19.3,0000.0,0009.73,0003.80,0002.24
2023-05-05 09:42:00,,0825.6,4.99,0.00,29.4,27.8,00.0,37.9,30.9,19.3,0000.0,0009.82,0003.82,0002.25
2023-05-05 09:43:00,,0825.6,5.00,0.00,29.4,27.8,00.0,37.9,30.9,19.4,0000.0,0009.75,0003.84,0002.26
2023-05-05 09:44:00,,0825.6,5.00,0.00,29.4,27.8,00.0,37.9,30.9,19.4,0000.0,0009.74,0003.85,0002.29
2023-05-05 09:45:00,,0825.6,5.00,0.00,29.4,27.9,00.0,37.8,30.8,19.3,0000.0,0010.34,0003.89,0002.29
2023-05-05 09:46:00,,0825.6,5.01,0.00,29.4,27.9,00.0,37.8,30.8,19.3,0000.0,0010.32,0003.90,0002.32
2023-05-05 09:47:00,,0825.7,5.00,0.00,29.4,27.9,00.0,37.8,30.8,19.2,0000.0,0009.63,0003.94,0002.32
2023-05-05 09:48:00,,0825.7,5.01,0.00,29.4,27.9,00.0,37.8,30.8,19.2,0000.0,0009.46,0003.92,0002.32
2023-05-05 09:49:00,,0825.8,5.00,0.00,29.4,27.8,00.0,37.8,30.8,19.1,0000.0,0009.70,0003.97,0002.31
2023-05-05 09:50:00,,0825.8,5.00,0.00,29.4,27.8,00.0,37.8,30.8,19.1,0000.0,0009.77,0004.00,0002.31
2023-05-05 09:51:00,,0825.8,5.00,0.00,29.4,27.8,00.0,37.8,30.8,19.1,0000.0,0010.18,0003.98,0002.31
2023-05-05 09:52:00,,0825.7,5.00,0.00,29.4,27.8,00.0,37.8,30.8,19.0,0000.0,0010.40,0003.97,0002.31
2023-05-05 09:53:00,,0825.8,4.99,0.00,29.4,27.8,00.0,37.8,30.8,19.1,0000.0,0010.50,0003.99,0002.31
2023-05-05 09:54:00,,0825.8,5.01,0.00,29.4,27.8,00.0,37.8,30.8,19.1,0000.0,0010.36,0003.93,0002.30
2023-05-05 09:55:00,,0825.8,5.01,0.00,29.4,27.8,00.0,37.8,30.8,19.1,0000.0,0010.23,0003.86,0002.28
2023-05-05 09:56:00,,0825.7,5.00,0.00,29.4,27.8,00.0,37.8,30.8,19.0,0000.0,0010.10,0003.82,0002.28
2023-05-05 09:57:00,,0825.8,5.00,0.00,29.4,27.8,00.0,37.8,30.8,18.8,0000.0,0010.29,0003.81,0002.29
2023-05-05 09:58:00,,0825.8,5.00,0.00,29.4,27.8,00.0,37.8,30.9,18.9,0000.0,0010.13,0003.78,0002.29
2023-05-05 09:59:00,,0825.8,5.00,0.00,29.4,27.7,00.0,37.8,30.9,18.8,0000.0,0010.19,0003.80,0002.28
